This demonstration page uses our WeatherBlox Daily Observations layout. Learn more.

Left ArrowRight Arrow

Hourly Observations for October 31, 2019

Temp ( °F °C ) Dew Point ( °F °C ) Humidity (%) Winds ( mph kmh ) Pressure ( in mb ) Visibility ( mi km ) Precip ( " mm )
12:53 am 00:53 Mostly Cloudy with Mist and Fog 57 13.9 57 13.9 100 100 WNW 5 7 29.84 1011 1 1 0.00 0.00
1:53 am 01:53 Mostly Cloudy with Fog 56 13.3 56 13.3 100 100 E 3 6 29.81 1009 0 0 0.00 0.00
2:53 am 02:53 Mostly Cloudy with Fog 56 13.3 56 13.3 100 100 Calm 29.78 1009 0 0 0.00 0.00
3:28 am 03:28 Cloudy with Mist and Fog 57 13.9 57 13.9 100 100 Calm 29.78 1008 2 3 0.00 0.00
3:35 am 03:35 Cloudy with Mist and Fog 57 13.9 57 13.9 100 100 Calm 29.77 1008 2 3 0.00 0.00
3:50 am 03:50 Cloudy with Mist and Fog 57 14 57 14 100 100 Calm 29.77 1008 3 5 0.00 0.00
3:53 am 03:53 Cloudy with Mist and Fog 57 13.9 57 13.9 100 100 Calm 29.76 1008 3 5 0.00 0.00
4:53 am 04:53 Cloudy with Mist and Fog 57 13.9 57 13.9 100 100 Calm 29.72 1007 2 3 0.00 0.00
5:02 am 05:02 Cloudy with Mist and Fog 57 13.9 57 13.9 100 100 Calm 29.74 1007 2 2 0.00 0.00
5:17 am 05:17 Cloudy with Light Rain 57 13.9 57 13.9 100 100 WNW 5 7 29.75 1007 2 3 0.01 0.25
5:29 am 05:29 Cloudy with Light Rain 57 13.9 57 13.9 100 100 Calm 29.75 1007 2 2 0.02 0.51
5:53 am 05:53 Cloudy with Light Rain 57 13.9 57 13.9 100 100 Calm 29.72 1007 2 3 0.03 0.76
6:20 am 06:20 Cloudy with Light Rain 57 13.9 57 13.9 100 100 E 3 6 29.69 1005 3 5 0.01 0.25
6:53 am 06:53 Cloudy with Light Rain 58 14.4 58 14.4 100 100 Calm 29.67 1005 3 5 0.03 0.76
7:41 am 07:41 Cloudy with Rain 58 14.4 58 14.4 100 100 Calm 29.64 1004 3 4 0.09 2.29
7:53 am 07:53 Cloudy with Heavy Rain 58 14.4 58 14.4 100 100 Calm 29.64 1004 2 3 0.14 3.56
7:57 am 07:57 Cloudy with Heavy Rain 58 14.4 58 14.4 100 100 Calm 29.64 1004 2 3 0.02 0.51
8:06 am 08:06 Cloudy with Rain 58 14.4 58 14.4 100 100 Calm 29.63 1003 3 4 0.05 1.27
8:29 am 08:29 Cloudy with Rain 58 14.4 58 14.4 100 100 Calm 29.62 1003 3 5 0.12 3.05
8:51 am 08:51 Cloudy with Rain 57 14 57 14 100 100 W 6 9 29.62 1003 3 5 0.17 4.32
8:53 am 08:53 Cloudy with Rain 58 14.4 58 14.4 100 100 W 5 7 29.61 1003 3 5 0.17 4.32
9:00 am 09:00 Cloudy with Heavy Rain 58 14.4 57 13.9 97 97 Calm 29.61 1003 2 3 0.03 0.76
9:08 am 09:08 Cloudy with Rain 58 14.4 57 13.9 97 97 W 3 6 29.62 1003 2 3 0.05 1.27
9:13 am 09:13 Cloudy with Rain 58 14.4 57 13.9 97 97 W 6 9 29.63 1003 2 3 0.06 1.52
9:18 am 09:18 Cloudy with Rain 57 13.9 57 13.9 100 100 W 9 15 29.64 1004 2 3 0.08 2.03
9:24 am 09:24 Cloudy with Rain 57 13.9 57 13.9 100 100 W 8 13 29.64 1004 1 2 0.12 3.05
9:36 am 09:36 Cloudy with Light Rain 57 13.9 57 13.9 100 100 WNW 9 15 29.63 1003 3 5 0.15 3.81
9:53 am 09:53 Cloudy with Light Rain 56 13.3 55 12.8 97 97 W 12 19 29.64 1004 9 14 0.16 4.06
10:15 am 10:15 Cloudy with Rain 54 12.2 52 11.1 93 93 WSW 9 15 29.66 1005 3 4 0.02 0.51
10:31 am 10:31 Cloudy with Light Rain 53 11.7 52 11.1 96 96 W 9 15 29.65 1004 4 6 0.04 1.02
10:37 am 10:37 Cloudy with Light Rain 53 11.7 52 11.1 96 96 W 9 15 29.66 1005 6 10 0.04 1.02
10:53 am 10:53 Cloudy with Light Rain 52 11.1 50 10 93 93 W 12 19 29.66 1004 9 14 0.05 1.27
11:37 am 11:37 Cloudy with Light Rain 51 10.6 49 9.4 92 92 WSW 10 17 29.67 1005 10 16 0.01 0.25
11:45 am 11:45 Cloudy with Light Rain 51 10.6 48 8.9 89 89 W 13 20 29.68 1005 10 16 0.01 0.25
11:53 am 11:53 Cloudy with Light Rain 50 10 47 8.3 89 89 W 16 26 29.67 1005 10 16 0.01 0.25
12:11 pm 12:11 Cloudy with Light Rain 49 9.4 47 8.3 93 93 W 13 20 29.71 1006 10 16 0.00 0.00
12:53 pm 12:53 Cloudy with Light Rain 47 8.3 44 6.7 90 90 WSW 18 30 29.71 1006 10 16 0.00 0.00
1:18 pm 13:18 Cloudy 47 8.3 42 5.6 83 83 W 16 26 29.73 1007 10 16 0.00 0.00
1:31 pm 13:31 Cloudy with Light Rain 46 7.8 43 6.1 89 89 WSW 18 30 29.73 1007 3 5 0.01 0.25
1:38 pm 13:38 Cloudy with Light Rain 45 7.2 43 6.1 93 93 WSW 21 33 29.75 1007 3 4 0.02 0.51
1:53 pm 13:53 Cloudy with Light Rain 43 6.1 41 5 93 93 WSW 16 26 29.74 1007 10 16 0.02 0.51
2:44 pm 14:44 Cloudy with Light Rain 41 5 37 2.8 86 86 W 14 22 29.79 1009 10 16 0.00 0.00
2:53 pm 14:53 Cloudy with Light Rain 41 5 36 2.2 82 82 W 21 33 29.78 1009 10 16 0.00 0.00
3:53 pm 15:53 Cloudy with Light Rain 40 4.4 33 0.6 77 77 WSW 23 37 29.82 1010 10 16 0.00 0.00
4:53 pm 16:53 Cloudy with Light Rain 37 2.8 34 1.1 89 89 WSW 18 30 29.88 1012 10 16 0.00 0.00
5:53 pm 17:53 Cloudy 36 2.2 30 -1.1 79 79 WSW 17 28 29.93 1014 10 16 0.01 0.25
6:53 pm 18:53 Cloudy with Light Rain 36 2.2 27 -2.8 70 70 W 23 37 29.99 1016 10 16 0.00 0.00
7:53 pm 19:53 Cloudy with Light Snow 35 1.7 28 -2.2 76 76 WSW 17 28 30.06 1018 9 14 0.00 0.00
8:53 pm 20:53 Cloudy with Light Snow 36 2.2 28 -2.2 73 73 W 12 19 30.11 1020 9 14 0.00 0.00
9:53 pm 21:53 Cloudy 35 1.7 27 -2.8 72 72 W 14 22 30.17 1022 10 16 0.00 0.00
10:53 pm 22:53 Cloudy 35 1.7 28 -2.2 76 76 W 9 15 30.19 1022 10 16 0.00 0.00
11:53 pm 23:53 Cloudy 35 1.7 28 -2.2 76 76 W 10 17 30.20 1023 10 16 0.00 0.00

Powered by AerisWeather